TimeCDT,TemperatureF,Dew PointF,Humidity,Sea Level PressureIn,VisibilityMPH,Wind Direction,Wind SpeedMPH,Gust SpeedMPH,PrecipitationIn,Events,Conditions,WindDirDegrees,DateUTC
12:53 AM,73.9,70.0,87,30.00,10.0,Calm,Calm,-,N/A,,Clear,0,2013-07-27 05:53:00
1:53 AM,72.0,69.1,91,29.99,10.0,Calm,Calm,-,N/A,,Clear,0,2013-07-27 06:53:00
2:53 AM,71.1,69.1,93,29.99,10.0,Calm,Calm,-,N/A,,Clear,0,2013-07-27 07:53:00
3:53 AM,71.1,69.1,93,29.98,10.0,Calm,Calm,-,N/A,,Clear,0,2013-07-27 08:53:00
4:53 AM,73.0,69.1,87,29.98,10.0,Calm,Calm,-,N/A,,Clear,0,2013-07-27 09:53:00
5:53 AM,73.9,70.0,87,29.99,10.0,Calm,Calm,-,N/A,,Clear,0,2013-07-27 10:53:00
6:53 AM,73.9,72.0,93,30.00,4.0,Calm,Calm,-,N/A,,Clear,0,2013-07-27 11:53:00
7:53 AM,77.0,73.9,90,30.01,6.0,SSW,3.5,-,N/A,,Clear,200,2013-07-27 12:53:00
8:53 AM,78.1,73.9,87,30.01,8.0,SSW,4.6,-,N/A,,Clear,200,2013-07-27 13:53:00
9:53 AM,81.0,73.0,77,30.01,9.0,SW,3.5,-,N/A,,Clear,220,2013-07-27 14:53:00
10:53 AM,84.9,72.0,65,30.00,10.0,Variable,3.5,-,N/A,,Clear,0,2013-07-27 15:53:00
11:53 AM,86.0,71.1,61,29.99,10.0,Variable,3.5,-,N/A,,Partly Cloudy,0,2013-07-27 16:53:00
12:53 PM,87.1,69.1,55,29.98,10.0,Variable,4.6,-,N/A,,Partly Cloudy,0,2013-07-27 17:53:00
1:53 PM,82.0,66.9,60,29.97,10.0,NNE,4.6,-,N/A,,Mostly Cloudy,30,2013-07-27 18:53:00
2:28 PM,82.4,68.0,62,29.98,10.0,Calm,Calm,-,N/A,Thunderstorm,Thunderstorm,0,2013-07-27 19:28:00
2:53 PM,79.0,70.0,74,29.97,9.0,SSW,9.2,-,0.00,Thunderstorm,Thunderstorm,210,2013-07-27 19:53:00
3:23 PM,73.4,68.0,83,30.00,4.0,SW,11.5,-,0.02,Rain,Rain,220,2013-07-27 20:23:00
3:44 PM,73.4,69.8,88,30.00,4.0,WSW,11.5,-,0.03,Rain-Thunderstorm,Light Rain,240,2013-07-27 20:44:00
3:53 PM,73.0,70.0,90,29.99,3.0,WSW,11.5,-,0.04,Rain,Rain,250,2013-07-27 20:53:00
4:53 PM,75.9,71.1,85,29.97,9.0,WNW,4.6,-,0.01,,Scattered Clouds,290,2013-07-27 21:53:00
5:53 PM,75.9,70.0,82,29.96,10.0,Calm,Calm,-,0.00,Rain,Light Rain,0,2013-07-27 22:53:00
6:53 PM,75.0,73.0,94,29.97,4.0,NNE,5.8,-,0.00,,Partly Cloudy,20,2013-07-27 23:53:00
7:53 PM,73.9,71.1,91,29.97,10.0,Calm,Calm,-,N/A,,Clear,0,2013-07-28 00:53:00
8:53 PM,73.9,72.0,93,29.98,7.0,Calm,Calm,-,N/A,,Scattered Clouds,0,2013-07-28 01:53:00
9:53 PM,73.9,72.0,93,30.00,8.0,Calm,Calm,-,N/A,,Overcast,0,2013-07-28 02:53:00
10:53 PM,73.9,72.0,93,29.99,7.0,Calm,Calm,-,N/A,,Overcast,0,2013-07-28 03:53:00
11:53 PM,73.0,72.0,96,29.98,6.0,SSW,6.9,-,N/A,,Partly Cloudy,200,2013-07-28 04:53:00